Location: Unspecified
(48.2082°N, 0.0000°E)
Time: 23:51:46
(UTC+00:00)

Altair - Pass Details

Date: 22 June 2019
Orbit: 1501 x 1683 km, 47.2° (Epoch: 12 October)

Event Time Altitude Azimuth Distance (km) Brightness Sun altitude
Rises 20:28:56 0° 240° (WSW) 4,706 10.3 -4.0°
Reaches altitude 10° 20:31:58 10° 238° (WSW) 3,746 9.7 -4.3°
Maximum altitude 20:41:23 69° 158° (SSE) 1,703 7.6 -5.5°
Drops below altitude 10° 20:51:14 10° 78° (ENE) 3,896 9.3 -6.6°
Sets 20:54:26 0° 76° (ENE) 4,903 9.9 -7.0°
